User: anonymous   Login
Location: Altmatt
(47.1333°N, 8.7000°E)
Time: 00:32:06
(UTC+00:00)
Language:

Cosmos 1943 Rocket - Orbit

View from above orbital plane
View from above orbital plane
View from above satellite
View from above satellite

Ground track
Ground track

The orbit data is extracted from the following two-line orbital elements,

1 19120U 88039B   20273.43040193 -.00000028 +00000-0 +94223-5 0  9995
2 19120 071.0127 308.8166 0020728 153.2943 206.9254 14.19207791676403
Epoch (UTC): 29 September 2020 10:19:46
Eccentricity: 0.0020728
inclination: 71.0127°
perigee height: 813 km
apogee height: 843 km
right ascension of ascending node: 308.8166°
argument of perigee: 153.2943°
revolutions per day: 14.19207791
mean anomaly at epoch: 206.9254°
orbit number at epoch: 67640

The dashed part of the orbit path shows where the satellite is in the earth's shadow,  

DLR